"read_dt","SO2 (ppb)","flags","PMT voltage (V)","lamp voltage (V)","lamp intensity (Hz)","internal temp (C)","react chamber temp (C)","sample flow (l/min)","pres (mmHg)","SO2 bkg (ppb)","SO2 coefficient"
2014-07-27 00:00:00,1781E-3,5C000000,-0724,0830,12255,030.2,045.6,0.476,736.8,01.18,0.508
2014-07-27 00:01:00,1815E-3,5C000000,-0724,0831,12229,030.2,045.6,0.476,736.8,01.18,0.508
2014-07-27 00:02:00,1969E-3,5C000000,-0724,0831,12192,030.2,045.5,0.476,736.8,01.18,0.508
2014-07-27 00:03:00,1741E-3,5C000000,-0724,0831,12327,030.2,045.6,0.476,736.8,01.18,0.508
2014-07-27 00:04:00,1773E-3,5C000000,-0724,0831,12315,030.2,045.6,0.476,736.8,01.18,0.508
2014-07-27 00:05:00,1884E-3,5C000000,-0724,0831,12163,030.2,045.6,0.476,736.7,01.18,0.508
2014-07-27 00:06:00,1849E-3,5C000000,-0724,0831,12352,030.3,045.6,0.476,736.7,01.18,0.508
2014-07-27 00:07:00,1815E-3,5C000000,-0724,0831,12132,030.3,045.6,0.476,736.7,01.18,0.508
2014-07-27 00:08:00,1917E-3,5C000000,-0724,0831,12136,030.3,045.6,0.476,736.7,01.18,0.508
2014-07-27 00:09:00,1861E-3,5C000000,-0724,0832,12205,030.3,045.6,0.476,736.7,01.18,0.508
2014-07-27 00:10:00,1921E-3,5C000000,-0724,0831,12275,030.3,045.6,0.476,736.8,01.18,0.508
2014-07-27 00:11:00,1875E-3,5C000000,-0724,0831,12073,030.3,045.6,0.476,736.7,01.18,0.508
2014-07-27 00:12:00,1820E-3,5C000000,-0724,0831,12227,030.3,045.6,0.476,736.7,01.18,0.508
2014-07-27 00:13:00,1804E-3,5C000000,-0724,0831,12132,030.3,045.6,0.476,736.7,01.18,0.508
2014-07-27 00:14:00,1783E-3,5C000000,-0724,0831,12273,030.3,045.6,0.476,736.7,01.18,0.508
2014-07-27 00:15:00,1811E-3,5C000000,-0724,0831,12110,030.3,045.6,0.476,736.7,01.18,0.508
2014-07-27 00:16:00,1771E-3,5C000000,-0724,0831,12037,030.3,045.6,0.476,736.7,01.18,0.508
2014-07-27 00:17:00,1869E-3,5C000000,-0724,0831,12214,030.3,045.6,0.476,736.7,01.18,0.508
2014-07-27 00:18:00,1767E-3,5C000000,-0724,0830,12180,030.3,045.6,0.476,736.7,01.18,0.508
2014-07-27 00:19:00,1763E-3,5C000000,-0724,0831,12043,030.3,045.6,0.476,736.7,01.18,0.508
2014-07-27 00:20:00,1957E-3,5C000000,-0724,0831,12121,030.3,045.6,0.476,736.6,01.18,0.508
2014-07-27 00:21:00,1875E-3,5C000000,-0724,0831,12084,030.3,045.6,0.476,736.7,01.18,0.508
2014-07-27 00:22:00,1786E-3,5C000000,-0724,0831,12117,030.3,045.6,0.476,736.7,01.18,0.508
2014-07-27 00:23:00,1750E-3,5C000000,-0724,0832,12170,030.4,045.6,0.476,736.7,01.18,0.508
2014-07-27 00:24:00,1872E-3,5C000000,-0724,0832,12232,030.4,045.6,0.476,736.6,01.18,0.508
2014-07-27 00:25:00,1874E-3,5C000000,-0724,0831,12046,030.4,045.6,0.476,736.6,01.18,0.508
2014-07-27 00:26:00,1773E-3,5C000000,-0724,0831,12150,030.4,045.6,0.476,736.7,01.18,0.508
2014-07-27 00:27:00,1848E-3,5C000000,-0724,0832,12145,030.4,045.6,0.476,736.6,01.18,0.508
2014-07-27 00:28:00,1866E-3,5C000000,-0724,0832,12272,030.4,045.6,0.476,736.5,01.18,0.508
2014-07-27 00:29:00,1832E-3,5C000000,-0724,0831,12100,030.4,045.6,0.476,736.6,01.18,0.508
2014-07-27 00:30:00,1780E-3,5C000000,-0724,0831,12174,030.4,045.6,0.476,736.6,01.18,0.508
2014-07-27 00:31:00,1830E-3,5C000000,-0724,0832,12204,030.4,045.6,0.476,736.6,01.18,0.508
2014-07-27 00:32:00,1963E-3,5C000000,-0724,0831,12240,030.4,045.6,0.475,736.5,01.18,0.508
2014-07-27 00:33:00,1794E-3,5C000000,-0724,0831,12228,030.4,045.6,0.476,736.6,01.18,0.508
2014-07-27 00:34:00,1873E-3,5C000000,-0724,0832,12193,030.3,045.6,0.476,736.6,01.18,0.508
2014-07-27 00:35:00,1790E-3,5C000000,-0724,0831,12264,030.3,045.6,0.476,736.6,01.18,0.508
2014-07-27 00:36:00,1844E-3,5C000000,-0724,0831,12124,030.3,045.6,0.476,736.5,01.18,0.508
2014-07-27 00:37:00,1873E-3,5C000000,-0724,0831,12273,030.2,045.6,0.476,736.6,01.18,0.508
2014-07-27 00:38:00,2048E-3,5C000000,-0724,0832,12207,030.2,045.5,0.476,736.5,01.18,0.508
2014-07-27 00:39:00,1847E-3,5C000000,-0724,0831,12195,030.2,045.6,0.476,736.5,01.18,0.508
2014-07-27 00:40:00,1771E-3,5C000000,-0724,0831,12276,030.2,045.6,0.477,736.5,01.18,0.508
2014-07-27 00:41:00,1818E-3,5C000000,-0724,0831,12277,030.1,045.6,0.476,736.5,01.18,0.508
2014-07-27 00:42:00,1703E-3,5C000000,-0724,0831,12064,030.1,045.6,0.476,736.5,01.18,0.508
2014-07-27 00:43:00,1953E-3,5C000000,-0724,0831,12253,030.1,045.6,0.477,736.6,01.18,0.508
2014-07-27 00:44:00,1842E-3,5C000000,-0724,0831,12030,030.1,045.5,0.477,736.5,01.18,0.508
2014-07-27 00:45:00,1772E-3,5C000000,-0724,0832,12306,030.1,045.5,0.476,736.5,01.18,0.508
2014-07-27 00:46:00,1835E-3,5C000000,-0724,0831,12260,030.1,045.6,0.476,736.6,01.18,0.508
2014-07-27 00:47:00,1730E-3,5C000000,-0724,0830,12117,030.0,045.6,0.477,736.6,01.18,0.508
2014-07-27 00:48:00,1813E-3,5C000000,-0724,0831,11983,030.0,045.6,0.477,736.5,01.18,0.508
2014-07-27 00:49:00,1728E-3,5C000000,-0724,0831,12303,030.0,045.6,0.476,736.5,01.18,0.508
2014-07-27 00:50:00,1735E-3,5C000000,-0724,0832,12305,030.0,045.5,0.476,736.5,01.18,0.508
2014-07-27 00:51:00,1909E-3,5C000000,-0724,0831,12266,030.0,045.6,0.476,736.6,01.18,0.508
2014-07-27 00:52:00,1837E-3,5C000000,-0724,0831,12239,030.0,045.6,0.477,736.5,01.18,0.508
2014-07-27 00:53:00,1836E-3,5C000000,-0724,0831,12182,030.0,045.5,0.477,736.5,01.18,0.508
2014-07-27 00:54:00,1860E-3,5C000000,-0724,0830,12129,030.0,045.5,0.477,736.5,01.18,0.508
2014-07-27 00:55:00,1832E-3,5C000000,-0724,0830,12064,030.0,045.5,0.476,736.5,01.18,0.508
2014-07-27 00:56:00,1837E-3,5C000000,-0724,0831,11868,029.9,045.5,0.476,736.5,01.18,0.508
2014-07-27 00:57:00,1840E-3,5C000000,-0724,0830,12254,029.9,045.6,0.476,736.6,01.18,0.508
2014-07-27 00:58:00,1927E-3,5C000000,-0724,0831,12218,029.9,045.6,0.477,736.5,01.18,0.508
2014-07-27 00:59:00,1888E-3,5C000000,-0724,0831,11934,029.9,045.5,0.477,736.5,01.18,0.508
2014-07-27 01:00:00,1800E-3,5C000000,-0724,0831,12311,029.9,045.5,0.477,736.6,01.18,0.508
2014-07-27 01:01:00,1826E-3,5C000000,-0724,0830,12151,029.9,045.5,0.477,736.5,01.18,0.508
2014-07-27 01:02:00,1816E-3,5C000000,-0724,0831,12079,029.9,045.5,0.477,736.6,01.18,0.508
2014-07-27 01:03:00,1838E-3,5C000000,-0724,0830,12210,029.9,045.5,0.476,736.5,01.18,0.508
2014-07-27 01:04:00,1830E-3,5C000000,-0724,0831,12140,029.9,045.5,0.477,736.5,01.18,0.508
2014-07-27 01:05:00,1775E-3,5C000000,-0724,0831,12267,029.9,045.5,0.477,736.6,01.18,0.508
2014-07-27 01:06:00,1754E-3,5C000000,-0724,0831,12319,029.9,045.5,0.477,736.5,01.18,0.508
2014-07-27 01:07:00,1857E-3,5C000000,-0724,0831,12302,029.9,045.5,0.477,736.5,01.18,0.508
2014-07-27 01:08:00,1855E-3,5C000000,-0724,0831,12115,029.9,045.5,0.477,736.5,01.18,0.508
2014-07-27 01:09:00,1752E-3,5C000000,-0724,0831,12199,029.9,045.5,0.477,736.5,01.18,0.508
2014-07-27 01:10:00,1741E-3,5C000000,-0724,0831,12340,029.9,045.5,0.476,736.5,01.18,0.508
2014-07-27 01:11:00,1858E-3,5C000000,-0724,0831,12284,029.9,045.5,0.476,736.4,01.18,0.508
2014-07-27 01:12:00,1743E-3,5C000000,-0724,0831,12119,029.9,045.5,0.477,736.5,01.18,0.508
2014-07-27 01:13:00,1851E-3,5C000000,-0724,0831,12111,029.9,045.5,0.477,736.5,01.18,0.508
2014-07-27 01:14:00,1911E-3,5C000000,-0724,0830,12166,029.9,045.5,0.477,736.5,01.18,0.508
2014-07-27 01:15:00,1971E-3,5C000000,-0724,0831,12129,029.9,045.6,0.477,736.5,01.18,0.508
2014-07-27 01:16:00,1840E-3,5C000000,-0724,0831,12274,029.9,045.5,0.477,736.5,01.18,0.508
2014-07-27 01:17:00,1929E-3,5C000000,-0724,0832,12301,029.9,045.5,0.477,736.4,01.18,0.508
2014-07-27 01:18:00,1963E-3,5C000000,-0724,0832,12173,029.9,045.5,0.476,736.5,01.18,0.508
2014-07-27 01:19:00,1803E-3,5C000000,-0724,0831,12202,029.9,045.5,0.476,736.5,01.18,0.508
2014-07-27 01:20:00,1831E-3,5C000000,-0724,0832,12287,029.9,045.5,0.476,736.5,01.18,0.508
2014-07-27 01:21:00,1822E-3,5C000000,-0724,0831,12148,029.9,045.5,0.477,736.5,01.18,0.508
2014-07-27 01:22:00,1980E-3,5C000000,-0724,0830,12330,029.9,045.5,0.477,736.5,01.18,0.508
2014-07-27 01:23:00,1783E-3,5C000000,-0724,0832,12186,029.9,045.5,0.477,736.5,01.18,0.508
2014-07-27 01:24:00,1940E-3,5C000000,-0724,0831,12167,030.0,045.5,0.477,736.5,01.18,0.508
2014-07-27 01:25:00,1687E-3,5C000000,-0724,0831,11974,030.0,045.5,0.477,736.5,01.18,0.508
2014-07-27 01:26:00,1808E-3,5C000000,-0724,0831,12307,030.0,045.5,0.476,736.5,01.18,0.508
2014-07-27 01:27:00,1998E-3,5C000000,-0724,0831,12275,029.9,045.5,0.476,736.5,01.18,0.508
2014-07-27 01:28:00,1787E-3,5C000000,-0724,0831,12194,030.0,045.5,0.477,736.5,01.18,0.508
2014-07-27 01:29:00,1878E-3,5C000000,-0724,0831,12060,030.0,045.5,0.477,736.5,01.18,0.508
2014-07-27 01:30:00,1805E-3,5C000000,-0724,0831,12323,030.0,045.5,0.477,736.6,01.18,0.508
2014-07-27 01:31:00,1957E-3,5C000000,-0724,0831,12080,030.0,045.5,0.477,736.5,01.18,0.508
2014-07-27 01:32:00,1858E-3,5C000000,-0724,0832,12177,030.0,045.5,0.477,736.5,01.18,0.508
2014-07-27 01:33:00,1930E-3,5C000000,-0724,0831,12072,030.0,045.5,0.476,736.6,01.18,0.508
2014-07-27 01:34:00,1877E-3,5C000000,-0724,0831,12220,030.0,045.5,0.476,736.5,01.18,0.508
2014-07-27 01:35:00,1711E-3,5C000000,-0724,0830,11994,030.0,045.5,0.477,736.4,01.18,0.508
2014-07-27 01:36:00,1874E-3,5C000000,-0724,0830,12156,030.0,045.5,0.477,736.5,01.18,0.508
2014-07-27 01:37:00,1843E-3,5C000000,-0724,0832,12153,030.0,045.6,0.477,736.5,01.18,0.508
2014-07-27 01:38:00,1945E-3,5C000000,-0724,0831,12173,030.0,045.5,0.477,736.5,01.18,0.508
2014-07-27 01:39:00,1718E-3,5C000000,-0724,0831,12240,030.0,045.5,0.476,736.6,01.18,0.508
2014-07-27 01:40:00,1944E-3,5C000000,-0724,0831,12071,030.0,045.5,0.476,736.5,01.18,0.508
2014-07-27 01:41:00,1864E-3,5C000000,-0724,0831,12241,030.0,045.5,0.476,736.5,01.18,0.508
2014-07-27 01:42:00,1896E-3,5C000000,-0724,0831,12206,030.0,045.6,0.477,736.5,01.18,0.508
2014-07-27 01:43:00,1910E-3,5C000000,-0724,0831,12273,030.1,045.6,0.477,736.5,01.18,0.508
2014-07-27 01:44:00,1761E-3,5C000000,-0724,0831,12208,030.1,045.6,0.477,736.5,01.18,0.508
2014-07-27 01:45:00,1753E-3,5C000000,-0724,0830,12238,030.1,045.6,0.476,736.5,01.18,0.508
2014-07-27 01:46:00,1963E-3,5C000000,-0724,0832,12265,030.1,045.5,0.476,736.5,01.18,0.508
2014-07-27 01:47:00,1844E-3,5C000000,-0724,0831,12171,030.1,045.5,0.476,736.5,01.18,0.508
2014-07-27 01:48:00,1832E-3,5C000000,-0724,0831,12238,030.1,045.5,0.477,736.5,01.18,0.508
2014-07-27 01:49:00,1866E-3,5C000000,-0724,0830,12199,030.1,045.6,0.477,736.5,01.18,0.508
2014-07-27 01:50:00,1838E-3,5C000000,-0724,0832,12226,030.1,045.6,0.477,736.5,01.18,0.508
2014-07-27 01:51:00,1827E-3,5C000000,-0724,0831,12003,030.1,045.5,0.477,736.5,01.18,0.508
2014-07-27 01:52:00,1772E-3,5C000000,-0724,0831,12039,030.1,045.5,0.476,736.5,01.18,0.508
2014-07-27 01:53:00,1811E-3,5C000000,-0724,0830,12297,030.1,045.5,0.476,736.5,01.18,0.508
2014-07-27 01:54:00,1844E-3,5C000000,-0724,0831,12147,030.1,045.5,0.476,736.5,01.18,0.508
2014-07-27 01:55:00,1796E-3,5C000000,-0724,0831,12175,030.1,045.5,0.477,736.5,01.18,0.508
2014-07-27 01:56:00,1888E-3,5C000000,-0724,0830,12275,030.1,045.6,0.477,736.5,01.18,0.508
2014-07-27 01:57:00,1930E-3,5C000000,-0724,0831,12069,030.1,045.5,0.477,736.5,01.18,0.508
2014-07-27 01:58:00,1925E-3,5C000000,-0724,0831,12151,030.1,045.5,0.476,736.5,01.18,0.508
2014-07-27 01:59:00,1963E-3,5C000000,-0724,0831,12316,030.1,045.5,0.476,736.5,01.18,0.508
2014-07-27 02:00:00,1727E-3,5C000000,-0724,0831,12293,030.2,045.5,0.476,736.5,01.18,0.508
2014-07-27 02:01:00,1898E-3,5C000000,-0724,0831,12194,030.2,045.5,0.477,736.5,01.18,0.508
2014-07-27 02:02:00,1870E-3,5C000000,-0724,0832,11757,030.2,045.6,0.477,736.5,01.18,0.508
2014-07-27 02:03:00,1775E-3,5C000000,-0724,0831,12144,030.2,045.6,0.477,736.5,01.18,0.508
2014-07-27 02:04:00,1871E-3,5C000000,-0724,0832,12103,030.2,045.5,0.476,736.5,01.18,0.508
2014-07-27 02:05:00,1836E-3,5C000000,-0724,0831,12089,030.2,045.5,0.476,736.5,01.18,0.508
2014-07-27 02:06:00,1836E-3,5C000000,-0724,0830,12168,030.2,045.5,0.476,736.5,01.18,0.508
2014-07-27 02:07:00,1743E-3,5C000000,-0724,0832,12170,030.2,045.6,0.477,736.6,01.18,0.508
2014-07-27 02:08:00,1830E-3,5C000000,-0724,0831,12270,030.2,045.6,0.477,736.5,01.18,0.508
2014-07-27 02:09:00,1879E-3,5C000000,-0724,0832,12187,030.2,045.5,0.476,736.5,01.18,0.508
2014-07-27 02:10:00,1844E-3,5C000000,-0724,0831,12066,030.2,045.6,0.476,736.6,01.18,0.508
2014-07-27 02:11:00,1824E-3,5C000000,-0724,0831,12247,030.3,045.6,0.476,736.5,01.18,0.508
2014-07-27 02:12:00,1809E-3,5C000000,-0724,0830,12131,030.2,045.6,0.476,736.5,01.18,0.508
2014-07-27 02:13:00,1791E-3,5C000000,-0724,0831,12218,030.2,045.6,0.477,736.5,01.18,0.508
2014-07-27 02:14:00,1837E-3,5C000000,-0724,0832,12028,030.3,045.5,0.476,736.5,01.18,0.508
2014-07-27 02:15:00,1949E-3,5C000000,-0724,0831,12364,030.3,045.6,0.476,736.5,01.18,0.508
2014-07-27 02:16:00,1852E-3,5C000000,-0724,0831,11953,030.3,045.5,0.476,736.5,01.18,0.508
2014-07-27 02:17:00,1790E-3,5C000000,-0724,0831,12044,030.3,045.5,0.476,736.5,01.18,0.508
2014-07-27 02:18:00,1861E-3,5C000000,-0724,0831,12161,030.3,045.6,0.477,736.5,01.18,0.508
2014-07-27 02:19:00,1782E-3,5C000000,-0724,0831,12237,030.3,045.6,0.476,736.5,01.18,0.508
2014-07-27 02:20:00,1772E-3,5C000000,-0724,0830,12062,030.3,045.5,0.476,736.5,01.18,0.508
2014-07-27 02:21:00,1997E-3,5C000000,-0724,0831,12266,030.3,045.6,0.476,736.5,01.18,0.508
2014-07-27 02:22:00,1946E-3,5C000000,-0724,0831,12211,030.3,045.6,0.476,736.6,01.18,0.508
2014-07-27 02:23:00,1855E-3,5C000000,-0724,0830,12100,030.4,045.6,0.476,736.5,01.18,0.508
2014-07-27 02:24:00,1694E-3,5C000000,-0724,0831,12174,030.4,045.6,0.476,736.4,01.18,0.508
2014-07-27 02:25:00,1757E-3,5C000000,-0724,0831,12123,030.4,045.6,0.476,736.6,01.18,0.508
2014-07-27 02:26:00,1747E-3,5C000000,-0724,0831,12051,030.4,045.6,0.476,736.5,01.18,0.508
2014-07-27 02:27:00,1863E-3,5C000000,-0724,0831,12211,030.4,045.6,0.476,736.5,01.18,0.508
2014-07-27 02:28:00,1721E-3,5C000000,-0724,0831,12121,030.4,045.6,0.476,736.5,01.18,0.508
2014-07-27 02:29:00,1816E-3,5C000000,-0724,0831,12387,030.4,045.6,0.476,736.5,01.18,0.508
2014-07-27 02:30:00,1851E-3,5C000000,-0724,0831,12145,030.4,045.6,0.476,736.5,01.18,0.508
2014-07-27 02:31:00,1979E-3,5C000000,-0724,0831,12085,030.4,045.6,0.476,736.5,01.18,0.508
2014-07-27 02:32:00,1828E-3,5C000000,-0724,0832,12208,030.4,045.6,0.476,736.4,01.18,0.508
2014-07-27 02:33:00,1951E-3,5C000000,-0724,0831,12073,030.4,045.6,0.476,736.5,01.18,0.508
2014-07-27 02:34:00,1886E-3,5C000000,-0724,0832,12097,030.5,045.6,0.476,736.5,01.18,0.508
2014-07-27 02:35:00,1881E-3,5C000000,-0724,0830,11980,030.5,045.6,0.476,736.3,01.18,0.508
2014-07-27 02:36:00,1870E-3,5C000000,-0724,0831,12249,030.5,045.5,0.476,736.4,01.18,0.508
2014-07-27 02:37:00,1888E-3,5C000000,-0724,0831,12168,030.5,045.5,0.476,736.4,01.18,0.508
2014-07-27 02:38:00,1852E-3,5C000000,-0724,0831,12094,030.5,045.6,0.476,736.5,01.18,0.508
2014-07-27 02:39:00,1808E-3,5C000000,-0724,0831,11933,030.5,045.5,0.476,736.4,01.18,0.508
2014-07-27 02:40:00,1853E-3,5C000000,-0724,0831,12253,030.5,045.5,0.475,736.5,01.18,0.508
2014-07-27 02:41:00,1722E-3,5C000000,-0724,0831,12183,030.5,045.6,0.476,736.4,01.18,0.508
2014-07-27 02:42:00,1809E-3,5C000000,-0724,0831,12106,030.5,045.6,0.476,736.4,01.18,0.508
2014-07-27 02:43:00,1663E-3,5C000000,-0724,0832,12133,030.5,045.6,0.475,736.3,01.18,0.508
2014-07-27 02:44:00,1801E-3,5C000000,-0724,0832,12326,030.5,045.5,0.476,736.4,01.18,0.508
2014-07-27 02:45:00,1841E-3,5C000000,-0724,0833,12204,030.6,045.6,0.476,736.3,01.18,0.508
2014-07-27 02:46:00,1786E-3,5C000000,-0724,0831,12233,030.6,045.6,0.476,736.3,01.18,0.508
2014-07-27 02:47:00,1851E-3,5C000000,-0724,0831,12347,030.6,045.6,0.475,736.3,01.18,0.508
2014-07-27 02:48:00,1890E-3,5C000000,-0724,0832,11797,030.6,045.6,0.476,736.2,01.18,0.508
2014-07-27 02:49:00,1843E-3,5C000000,-0724,0831,12208,030.6,045.6,0.476,736.3,01.18,0.508
2014-07-27 02:50:00,1750E-3,5C000000,-0724,0832,12087,030.6,045.6,0.476,736.3,01.18,0.508
2014-07-27 02:51:00,1858E-3,5C000000,-0724,0831,12230,030.6,045.6,0.475,736.3,01.18,0.508
2014-07-27 02:52:00,1781E-3,5C000000,-0724,0831,12179,030.6,045.6,0.476,736.3,01.18,0.508
2014-07-27 02:53:00,1864E-3,5C000000,-0724,0832,12025,030.6,045.5,0.476,736.2,01.18,0.508
2014-07-27 02:54:00,1862E-3,5C000000,-0724,0832,12119,030.6,045.6,0.475,736.1,01.18,0.508
2014-07-27 02:55:00,1801E-3,5C000000,-0724,0832,12230,030.6,045.6,0.475,736.2,01.18,0.508
2014-07-27 02:56:00,1855E-3,5C000000,-0724,0831,12086,030.6,045.6,0.476,736.2,01.18,0.508
2014-07-27 02:57:00,1910E-3,5C000000,-0724,0832,12254,030.6,045.6,0.476,736.3,01.18,0.508
2014-07-27 02:58:00,1914E-3,5C000000,-0724,0831,11988,030.7,045.6,0.475,736.2,01.18,0.508
2014-07-27 02:59:00,1995E-3,5C000000,-0724,0831,12236,030.7,045.6,0.476,736.2,01.18,0.508
2014-07-27 03:00:00,1959E-3,5C000000,-0724,0831,12198,030.7,045.6,0.476,736.2,01.18,0.508
2014-07-27 03:01:00,1843E-3,5C000000,-0724,0832,12272,030.7,045.6,0.475,736.1,01.18,0.508
2014-07-27 03:02:00,1834E-3,5C000000,-0724,0832,12141,030.7,045.6,0.475,736.2,01.18,0.508
2014-07-27 03:03:00,1840E-3,5C000000,-0724,0831,12162,030.7,045.6,0.476,736.2,01.18,0.508
2014-07-27 03:04:00,1798E-3,5C000000,-0724,0831,12152,030.7,045.6,0.475,736.2,01.18,0.508
2014-07-27 03:05:00,1775E-3,5C000000,-0724,0831,12386,030.7,045.6,0.475,736.1,01.18,0.508
2014-07-27 03:06:00,1756E-3,5C000000,-0724,0831,12062,030.7,045.6,0.476,736.2,01.18,0.508
2014-07-27 03:07:00,1842E-3,5C000000,-0724,0831,12119,030.7,045.6,0.476,736.2,01.18,0.508
2014-07-27 03:08:00,1758E-3,5C000000,-0724,0831,12153,030.7,045.6,0.475,736.1,01.18,0.508
2014-07-27 03:09:00,1782E-3,5C000000,-0724,0832,12228,030.7,045.6,0.475,736.2,01.18,0.508
2014-07-27 03:10:00,1829E-3,5C000000,-0724,0831,12103,030.7,045.6,0.476,736.1,01.18,0.508
2014-07-27 03:11:00,1783E-3,5C000000,-0724,0831,12208,030.8,045.6,0.475,736.2,01.18,0.508
2014-07-27 03:12:00,1889E-3,5C000000,-0724,0831,11931,030.8,045.6,0.475,736.2,01.18,0.508
2014-07-27 03:13:00,1891E-3,5C000000,-0724,0831,12255,030.8,045.6,0.476,736.1,01.18,0.508
2014-07-27 03:14:00,1887E-3,5C000000,-0724,0831,12239,030.8,045.6,0.476,736.2,01.18,0.508
2014-07-27 03:15:00,1872E-3,5C000000,-0724,0831,12139,030.8,045.6,0.475,736.1,01.18,0.508
2014-07-27 03:16:00,1800E-3,5C000000,-0724,0832,12219,030.8,045.6,0.475,736.2,01.18,0.508
2014-07-27 03:17:00,1914E-3,5C000000,-0724,0831,11996,030.8,045.6,0.476,736.2,01.18,0.508
2014-07-27 03:18:00,1714E-3,5C000000,-0724,0831,12132,030.8,045.6,0.475,736.1,01.18,0.508
2014-07-27 03:19:00,1910E-3,5C000000,-0724,0832,12217,030.8,045.6,0.475,736.1,01.18,0.508
2014-07-27 03:20:00,1844E-3,5C000000,-0724,0834,12366,030.8,045.6,0.476,736.1,01.18,0.508
2014-07-27 03:21:00,1937E-3,5C000000,-0724,0831,12028,030.8,045.6,0.475,736.1,01.18,0.508
2014-07-27 03:22:00,1825E-3,5C000000,-0724,0831,12140,030.8,045.6,0.475,736.1,01.18,0.508
2014-07-27 03:23:00,1983E-3,5C000000,-0724,0831,12267,030.8,045.6,0.476,736.1,01.18,0.508
2014-07-27 03:24:00,1825E-3,5C000000,-0724,0831,12012,030.9,045.6,0.475,736.1,01.18,0.508
2014-07-27 03:25:00,1924E-3,5C000000,-0724,0832,12247,030.9,045.6,0.475,736.1,01.18,0.508
2014-07-27 03:26:00,1903E-3,5C000000,-0724,0832,12315,030.9,045.6,0.475,736.1,01.18,0.508
2014-07-27 03:27:00,1913E-3,5C000000,-0724,0831,11964,030.9,045.6,0.475,736.0,01.18,0.508
2014-07-27 03:28:00,1927E-3,5C000000,-0724,0832,12246,030.9,045.6,0.475,736.1,01.18,0.508
2014-07-27 03:29:00,2004E-3,5C000000,-0724,0830,12211,030.9,045.6,0.475,736.1,01.18,0.508
2014-07-27 03:30:00,1865E-3,5C000000,-0724,0833,12137,030.9,045.6,0.475,736.1,01.18,0.508
2014-07-27 03:31:00,1924E-3,5C000000,-0724,0831,12354,030.9,045.6,0.475,736.0,01.18,0.508
2014-07-27 03:32:00,1849E-3,5C000000,-0724,0832,12171,030.9,045.6,0.475,736.0,01.18,0.508
2014-07-27 03:33:00,1850E-3,5C000000,-0724,0832,12174,030.9,045.6,0.475,736.0,01.18,0.508
2014-07-27 03:34:00,1816E-3,5C000000,-0724,0831,12139,030.9,045.6,0.475,736.1,01.18,0.508
2014-07-27 03:35:00,1803E-3,5C000000,-0724,0831,12154,030.9,045.6,0.475,736.1,01.18,0.508
2014-07-27 03:36:00,1912E-3,5C000000,-0724,0831,12207,030.9,045.6,0.475,736.0,01.18,0.508
2014-07-27 03:37:00,1788E-3,5C000000,-0724,0831,12123,031.0,045.6,0.475,736.2,01.18,0.508
2014-07-27 03:38:00,1799E-3,5C000000,-0724,0832,12252,030.9,045.6,0.475,736.1,01.18,0.508
2014-07-27 03:39:00,1755E-3,5C000000,-0724,0831,12268,031.0,045.6,0.475,736.1,01.18,0.508
2014-07-27 03:40:00,1795E-3,5C000000,-0724,0832,12215,031.0,045.6,0.475,736.1,01.18,0.508
2014-07-27 03:41:00,1883E-3,5C000000,-0724,0830,12240,031.0,045.6,0.475,736.1,01.18,0.508
2014-07-27 03:42:00,1897E-3,5C000000,-0724,0831,12281,031.0,045.6,0.475,736.1,01.18,0.508
2014-07-27 03:43:00,1966E-3,5C000000,-0724,0830,12226,031.0,045.6,0.475,736.0,01.18,0.508
2014-07-27 03:44:00,1867E-3,5C000000,-0724,0831,12129,031.0,045.6,0.475,736.1,01.18,0.508
2014-07-27 03:45:00,1920E-3,5C000000,-0724,0831,12157,031.0,045.6,0.475,736.0,01.18,0.508
2014-07-27 03:46:00,1854E-3,5C000000,-0724,0831,12174,031.0,045.6,0.475,736.0,01.18,0.508
2014-07-27 03:47:00,1895E-3,5C000000,-0724,0832,12376,031.0,045.6,0.475,736.0,01.18,0.508
2014-07-27 03:48:00,1928E-3,5C000000,-0724,0832,12235,031.0,045.6,0.475,736.0,01.18,0.508
2014-07-27 03:49:00,1934E-3,5C000000,-0724,0832,12105,031.0,045.6,0.475,736.0,01.18,0.508
2014-07-27 03:50:00,1902E-3,5C000000,-0724,0831,12205,031.0,045.6,0.475,736.0,01.18,0.508
2014-07-27 03:51:00,1898E-3,5C000000,-0724,0830,12186,031.0,045.6,0.475,736.0,01.18,0.508
2014-07-27 03:52:00,1714E-3,5C000000,-0724,0831,11941,031.1,045.6,0.475,736.0,01.18,0.508
2014-07-27 03:53:00,1773E-3,5C000000,-0724,0831,12037,031.1,045.6,0.475,736.0,01.18,0.508
2014-07-27 03:54:00,1894E-3,5C000000,-0724,0832,11981,031.1,045.6,0.475,736.0,01.18,0.508
2014-07-27 03:55:00,1818E-3,5C000000,-0724,0831,12153,031.1,045.6,0.475,736.0,01.18,0.508
2014-07-27 03:56:00,1781E-3,5C000000,-0724,0832,12187,031.1,045.6,0.475,736.0,01.18,0.508
2014-07-27 03:57:00,1822E-3,5C000000,-0724,0832,12206,031.1,045.6,0.475,736.0,01.18,0.508
2014-07-27 03:58:00,1727E-3,5C000000,-0724,0830,12126,031.1,045.6,0.475,736.0,01.18,0.508
2014-07-27 03:59:00,1928E-3,5C000000,-0724,0832,12153,031.1,045.6,0.475,736.0,01.18,0.508
2014-07-27 04:00:00,1931E-3,5C000000,-0724,0830,12038,031.1,045.6,0.474,736.0,01.18,0.508
2014-07-27 04:01:00,1924E-3,5C000000,-0724,0831,12336,031.1,045.6,0.475,736.0,01.18,0.508
2014-07-27 04:02:00,1895E-3,5C000000,-0724,0832,12160,031.1,045.6,0.475,736.0,01.18,0.508
2014-07-27 04:03:00,1770E-3,5C000000,-0724,0831,12205,031.1,045.6,0.475,736.0,01.18,0.508
2014-07-27 04:04:00,1853E-3,5C000000,-0724,0832,12225,031.1,045.6,0.475,736.0,01.18,0.508
2014-07-27 04:05:00,1791E-3,5C000000,-0724,0831,12116,031.1,045.6,0.474,736.0,01.18,0.508
2014-07-27 04:06:00,1855E-3,5C000000,-0724,0832,12219,031.1,045.6,0.475,736.0,01.18,0.508
2014-07-27 04:07:00,1926E-3,5C000000,-0724,0832,12283,031.2,045.6,0.475,736.0,01.18,0.508
2014-07-27 04:08:00,1816E-3,5C000000,-0724,0831,12155,031.2,045.6,0.474,736.0,01.18,0.508
2014-07-27 04:09:00,1943E-3,5C000000,-0724,0831,12241,031.2,045.6,0.475,736.0,01.18,0.508
2014-07-27 04:10:00,1805E-3,5C000000,-0724,0832,12223,031.2,045.6,0.475,736.0,01.18,0.508
2014-07-27 04:11:00,1873E-3,5C000000,-0724,0832,12121,031.2,045.6,0.474,736.0,01.18,0.508
2014-07-27 04:12:00,1780E-3,5C000000,-0724,0831,12202,031.2,045.6,0.475,735.9,01.18,0.508
2014-07-27 04:13:00,1790E-3,5C000000,-0724,0832,12250,031.2,045.6,0.474,736.0,01.18,0.508
2014-07-27 04:14:00,1806E-3,5C000000,-0724,0832,12281,031.2,045.6,0.475,735.9,01.18,0.508
2014-07-27 04:15:00,1811E-3,5C000000,-0724,0832,12076,031.2,045.6,0.475,736.0,01.18,0.508
2014-07-27 04:16:00,1921E-3,5C000000,-0724,0832,12280,031.2,045.6,0.474,736.0,01.18,0.508
2014-07-27 04:17:00,1819E-3,5C000000,-0724,0831,12122,031.2,045.6,0.475,735.9,01.18,0.508
2014-07-27 04:18:00,1806E-3,5C000000,-0724,0831,12050,031.2,045.6,0.474,736.0,01.18,0.508
2014-07-27 04:19:00,1906E-3,5C000000,-0724,0831,12223,031.2,045.6,0.475,736.0,01.18,0.508
2014-07-27 04:20:00,1907E-3,5C000000,-0724,0832,12136,031.2,045.6,0.475,736.0,01.18,0.508